Location: Gungolding
(48.9246°N, 11.3502°E)
Time: 14:41:21
(UTC+01:00)

N. Korean satellite - Visible Passes

Search period start: 25 February 2020 00:00
Search period end: 06 March 2020 00:00
Orbit: 456 x 505 km, 97.2° (Epoch: 24 February)

Date Brightness Start Highest point End Pass type
(mag) Time Alt. Az. Time Alt. Az. Time Alt. Az.
25 Feb 7.1 05:59:02 10° NNE 06:02:46 64° ESE 06:06:25 10° S visible
26 Feb 8.6 05:33:44 10° NNE 05:37:07 32° E 05:40:27 10° SSE visible
27 Feb 9.7 05:08:49 10° NE 05:11:23 18° E 05:13:56 10° SE visible
28 Feb 6.6 06:15:45 10° N 06:19:29 80° WNW 06:23:09 10° SSW visible
28 Feb 10.6 18:31:04 10° WSW 18:32:01 11° W 18:32:58 10° WNW visible
29 Feb 7.6 05:50:16 10° NNE 05:53:54 50° E 05:57:28 10° S visible
01 Mar 9.1 05:25:03 10° NE 05:28:14 26° E 05:31:20 10° SSE visible
02 Mar 9.9 05:00:24 10° NE 05:02:27 14° E 05:04:29 10° ESE visible
03 Mar 6.8 06:06:54 10° NNE 06:10:38 81° ESE 06:14:16 10° S visible
04 Mar 8.2 05:41:30 10° NNE 05:45:00 39° E 05:48:26 10° SSE visible
05 Mar 9.5 05:16:26 10° NE 05:19:17 21° E 05:22:06 10° SE visible
